Location: Berlise
(49.6641°N, 4.1077°E)
Time: 20:06:26
(UTC+00:00)

Cosmos 1315 Rocket - Pass Details

Date: 27 January 2021
Orbit: 529 x 567 km, 81.2° (Epoch: 27 February)

Event Time Altitude Azimuth Distance (km) Brightness Sun altitude
Rises 05:44:34 0° 192° (SSW) 2,660 6.3 -15.8°
Reaches altitude 10° 05:46:42 10° 193° (SSW) 1,774 5.4 -15.4°
Maximum altitude 05:50:36 83° 281° (WNW) 542 2.6 -14.8°
Drops below altitude 10° 05:54:33 10° 11° (N) 1,794 5.4 -14.2°
Sets 05:56:44 0° 12° (NNE) 2,693 6.3 -13.9°
